[[{"header":{"parameterUnit":"m.s-1","parameterCategory":1,"la1":30.2991,"la2":30.254,"lo1":-89.0895,"lo2":-89.0444,"dx":0.0017,"dy":0.0017,"nx":28,"ny":28,"refTime":"2023-01-02T15:00:00:Z","depth":0,"parameterNumber":2,"parameterNumberName":"U-component_of_WINDS"},"data":[0,0,0,0,0,0,0,0,0,0,0,0,0,0,0,0,0,0,0,0,0,0,0,0,0,0,0,0,0,0,0,0,0,0,0,0,0,0,0,0,0,0,0,0,0,0,0,0,0,0,0,0,0,0,0,0,0,0,-3.8776,-3.8776,0,-3.8816,-3.8817,-3.8817,-3.8775,-3.8774,-3.8772,-3.8771,-3.8812,-3.8815,-3.8817,0,0,0,0,0,0,0,0,0,0,0,0,0,-3.8662,-3.8664,-3.8776,-3.8776,-3.8777,-3.8816,-3.8817,-3.8817,-3.8776,-3.8774,-3.8772,-3.877,-3.8811,-3.8814,-3.8818,0,0,0,0,0,0,0,0,0,0,0,0,0,-3.8708,-3.8665,-3.8776,-3.8761,-3.876,-3.8816,-3.8817,-3.8818,-3.8776,-3.8774,-3.8771,-3.8769,-3.881,-3.8814,-3.8818,-3.8891,0,0,-3.883,-3.8832,0,0,0,0,0,0,0,0,-3.8705,-3.8712,-3.8762,-3.8762,-3.8761,-3.8788,-3.8792,-3.8842,-3.8777,-3.877,-3.877,-3.8768,-3.8806,-3.881,-3.8823,-3.8893,-3.8895,-3.883,-3.8833,-3.8835,-3.8836,0,0,0,0,0,0,0,-3.8702,-3.871,-3.8792,-3.8763,-3.8762,-3.8752,-3.8756,-3.8801,-3.8801,-3.877,-3.8767,-3.8773,-3.8805,-3.882,-3.8824,-3.8896,-3.883,-3.8834,-3.8836,-3.8838,-3.9027,-3.9029,0,0,0,0,0,0,-3.87,-3.8708,-3.879,-3.8793,-3.8726,-3.8756,-3.876,-3.8782,-3.8801,-3.8801,-3.8775,-3.8771,-3.8814,-3.8819,-3.8825,-3.8911,-3.8834,-3.8838,-3.884,-3.9024,-3.9028,-3.903,0,0,0,0,0,0,-3.8698,-3.8708,-3.8789,-3.875,-3.8759,-3.876,-3.8785,-3.8784,-3.8798,-3.8804,-3.8804,-3.8789,-3.8812,-3.882,-3.8875,-3.8912,-3.884,-3.8844,-3.9021,-3.9025,-3.9029,-3.9084,0,0,0,0,0,0,-3.8695,-3.8708,-3.8736,-3.875,-3.8761,-3.8838,-3.8788,-3.8787,-3.8805,-3.88,-3.8818,-3.8818,-3.8811,-3.8869,-3.8879,-3.8916,-3.8847,-3.9018,-3.9023,-3.9028,-3.9079,-3.9089,-3.9099,0,0,0,0,0,-3.8691,-3.875,-3.8737,-3.8747,-3.8796,-3.884,-3.8846,-3.8837,-3.8808,-3.8836,-3.884,-3.8818,-3.8907,-3.8875,-3.8886,-3.8925,-3.9015,-3.9022,-3.9027,-3.9075,-3.9087,-3.9098,0,0,0,0,0,0,-3.8739,-3.8751,-3.8738,-3.8803,-3.8821,-3.8833,-3.8868,-3.8851,-3.8877,-3.8872,-3.8859,-3.8863,-3.8921,-3.8929,-3.8894,-3.8996,-3.8956,-3.8965,-3.8989,-3.9001,-3.9011,-3.9007,-3.885,0,0,0,0,0,-3.8757,-3.8792,-3.8801,-3.8858,-3.8867,-3.8866,-3.8885,-3.8876,-3.8894,-3.8902,-3.891,-3.8928,-3.896,-3.8981,-3.9011,-3.9081,-3.9083,-3.9113,-3.9122,-3.913,-3.9137,-3.9173,-3.9186,-3.905,-3.905,-3.905,0,0,-3.8795,-3.8806,-3.8829,-3.8868,-3.888,-3.8916,-3.8873,-3.8913,-3.8939,-3.8908,-3.896,-3.8967,-3.8986,-3.9049,-3.9077,-3.9057,-3.9176,-3.9138,-3.9144,-3.9147,-3.918,-3.9193,-3.9205,-3.9054,-3.9053,-3.9053,0,0,-3.8881,-3.8894,-3.8942,-3.8956,-3.8976,-3.8975,-3.8987,-3.9002,-3.9005,-3.9057,-3.9034,-3.9065,-3.9121,-3.9136,-3.9151,-3.9244,-3.9223,-3.9254,-3.9304,-3.9339,-3.935,-3.9359,-3.9391,-3.9402,-3.9261,-3.9261,-3.9261,0,-3.8925,-3.8979,-3.8969,-3.901,-3.9027,-3.9001,-3.9049,-3.9063,-3.9092,-3.9105,-3.9083,-3.9152,-3.9163,-3.9228,-3.925,-3.9264,-3.9276,-3.9251,-3.9349,-3.9359,-3.9367,-3.9397,-3.9409,-3.9265,-3.9264,-3.9264,-3.9264,0,-3.9031,-3.9069,-3.9105,-3.9133,-3.9155,-3.92,-3.9196,-3.9219,-3.9209,-3.9211,-3.9264,-3.9277,-3.9309,-3.9324,-3.9315,-3.9387,-3.9374,-3.9351,-3.931,-3.9384,-3.9411,-3.9423,-3.9269,-3.9268,-3.9267,-3.9266,0,0,-3.9147,-3.917,-3.9183,-3.9195,-3.9216,-3.9244,-3.9288,-3.9319,-3.9338,-3.936,-3.9395,-3.9444,-3.9422,-3.9439,-3.9431,-3.9463,-3.9533,-3.9435,-3.9436,-3.9451,-3.9612,-3.9628,-3.9641,-3.9521,-3.9523,-3.9525,-3.961,0,-3.9233,-3.9308,-3.93,-3.9371,-3.9405,-3.9381,-3.9419,-3.9436,-3.9439,-3.9468,-3.9471,-3.9504,-3.9474,-3.9484,-3.9514,-3.9518,-3.9565,-3.9512,-3.9553,-3.9554,-3.9546,-3.9656,-3.9673,-3.9752,-3.9621,-3.9623,-3.9624,0,-3.9342,-3.9367,-3.9441,-3.9456,-3.947,-3.9504,-3.9531,-3.956,-3.9578,-3.9578,-3.9597,-3.9584,-3.9628,-3.9588,-3.9647,-3.9612,-3.9628,-3.9633,-3.9636,-3.9637,-3.9592,-3.9658,-3.9777,-3.9789,-3.9642,-3.964,-3.9639,0,-3.9417,-3.9469,-3.952,-3.9531,-3.9551,-3.9575,-3.9584,-3.96,-3.9619,-3.9643,-3.9655,-3.9685,-3.97,-3.9723,-3.9718,-3.969,-3.9778,-3.9739,-3.9778,-3.9778,-3.9796,-3.9794,-3.9917,-3.9811,-3.9811,-3.981,-3.981,0,-3.9512,-3.9558,-3.9553,-3.9585,-3.9635,-3.9627,-3.9677,-3.9683,-3.9698,-3.973,-3.9712,-3.9742,-3.9735,-3.9765,-3.9761,-3.981,-3.9818,-3.9818,-3.9816,-3.9818,-3.9818,-3.9827,-3.9821,-3.9813,-3.9813,-3.9812,-3.9812,0,-3.9602,-3.9602,-3.9655,-3.9669,-3.9674,-3.9711,-3.9722,-3.9752,-3.9753,-3.9794,-3.9803,-3.9805,-3.984,-3.9838,-3.9877,-3.9874,-3.9934,-3.9927,-3.9927,-3.9925,-3.9964,-3.9959,-4.0094,-4.0111,-3.9996,-3.9997,-3.9998,0,-3.9662,-3.9696,-3.9714,-3.9734,-3.9745,-3.9777,-3.9796,-3.979,-3.981,-3.9834,-3.986,-3.9893,-3.9918,-3.9974,-3.9979,-4.0009,-4.0001,-4.0047,-4.0005,-4.0006,-3.9999,-3.9996,-3.9999,-4.0054,-4.0055,-4.0056,-4.0057,0,-3.9767,-3.9765,-3.9793,-3.9821,-3.9844,-3.9866,-3.9886,-3.9904,-3.9899,-3.9923,-3.9958,-3.9978,-4.0017,-4.0049,-4.0078,-4.0087,-4.0071,-4.007,-4.0081,-4.0082,-4.008,-4.0079,-3.9947,-4.0067,-4.0066,-4.0065,-4.0064,-4.0064,-3.9842,-3.9871,-3.9888,-3.992,-3.9934,-3.9953,-3.9981,-3.9986,-4.0015,-4.0046,-4.0041,-4.008,-4.0097,-4.0134,-4.0146,-4.0176,-4.0159,-4.0175,-4.0178,-4.0182,-4.0185,-4.0077,-4.0181,-4.0181,-4.0181,-4.018,-4.018,0,-3.9944,-3.9954,-3.9983,-4.0011,-4.0036,-4.002,-4.0042,-4.0063,-4.0097,-4.0115,-4.0141,-4.018,-4.0211,-4.022,-4.025,-4.0272,-4.0265,-4.028,-4.0277,-4.0279,-4.0199,-4.0186,-4.0285,-4.0285,-4.0285,-4.0285,-4.0285,-4.0285,-4.0,-4.0048,-4.0048,-4.0103,-4.0112,-4.015,-4.0163,-4.018,-4.0194,-4.0239,-4.0265,-4.027,-4.0284,-4.0315,-4.0343,-4.0344,-4.0355,-4.0372,-4.0371,-4.0295,-4.0285,-4.0275,-4.0262,-4.0375,-4.0375,-4.0448,-4.0449,-4.0449]},{"header":{"parameterUnit":"m.s-1","parameterCategory":1,"la1":30.2991,"la2":30.254,"lo1":-89.0895,"lo2":-89.0444,"dx":0.0017,"dy":0.0017,"nx":28,"ny":28,"refTime":"2023-01-02T15:00:00:Z","depth":0,"parameterNumber":3,"parameterNumberName":"V-component_of_WINDS"},"data":[0,0,0,0,0,0,0,0,0,0,0,0,0,0,0,0,0,0,0,0,0,0,0,0,0,0,0,0,0,0,0,0,0,0,0,0,0,0,0,0,0,0,0,0,0,0,0,0,0,0,0,0,0,0,0,0,0,0,3.3492,3.3493,0,3.36,3.3601,3.3603,3.3632,3.3632,3.3631,3.363,3.3741,3.3745,3.3748,0,0,0,0,0,0,0,0,0,0,0,0,0,3.3311,3.3314,3.3491,3.3493,3.3494,3.36,3.3602,3.3603,3.3632,3.3632,3.3631,3.363,3.374,3.3744,3.3749,0,0,0,0,0,0,0,0,0,0,0,0,0,3.3402,3.3315,3.3491,3.3522,3.3525,3.36,3.3602,3.3603,3.3633,3.3632,3.3631,3.363,3.3739,3.3744,3.3749,3.3801,0,0,3.3765,3.3768,0,0,0,0,0,0,0,0,3.3397,3.3408,3.3516,3.352,3.3524,3.3602,3.3579,3.367,3.3633,3.3592,3.363,3.3629,3.3696,3.3704,3.3727,3.3806,3.3811,3.3766,3.3769,3.3771,3.3773,0,0,0,0,0,0,0,3.339,3.3404,3.3534,3.3517,3.3522,3.3531,3.3542,3.3596,3.3648,3.3595,3.3598,3.361,3.3698,3.3722,3.373,3.3813,3.3766,3.377,3.3774,3.3776,3.3944,3.3945,0,0,0,0,0,0,3.3379,3.3398,3.3531,3.3538,3.3457,3.3534,3.3548,3.3578,3.3647,3.3657,3.3611,3.3611,3.3713,3.3723,3.3734,3.3802,3.3771,3.3776,3.3779,3.3943,3.3944,3.3946,0,0,0,0,0,0,3.3375,3.339,3.3527,3.3469,3.3487,3.3539,3.3572,3.358,3.3604,3.3659,3.3668,3.3626,3.3713,3.3726,3.3785,3.3806,3.3779,3.3784,3.3941,3.3943,3.3945,3.3937,0,0,0,0,0,0,3.3369,3.3388,3.3408,3.3469,3.349,3.3575,3.3573,3.3583,3.3614,3.3615,3.3676,3.3685,3.3713,3.3777,3.379,3.3813,3.3788,3.394,3.3942,3.3945,3.3936,3.3938,3.3941,0,0,0,0,0,3.3363,3.34,3.3409,3.3425,3.3515,3.3577,3.3589,3.3621,3.3615,3.3636,3.3672,3.3683,3.3801,3.3783,3.3798,3.3823,3.3939,3.3942,3.3944,3.3935,3.3938,3.3941,0,0,0,0,0,0,3.334,3.3409,3.3419,3.3477,3.3521,3.3581,3.3608,3.3622,3.3668,3.3668,3.3705,3.3719,3.3776,3.3805,3.3783,3.3879,3.387,3.3876,3.3858,3.3861,3.3864,3.3856,3.3792,0,0,0,0,0,3.3341,3.3385,3.3443,3.3489,3.3511,3.3556,3.3584,3.3605,3.3652,3.367,3.371,3.3755,3.3803,3.3833,3.388,3.394,3.3955,3.3964,3.3967,3.3969,3.3974,3.4012,3.4017,3.3955,3.3955,3.3955,0,0,3.3345,3.3389,3.3414,3.3486,3.3522,3.3568,3.3571,3.3618,3.3653,3.3677,3.3736,3.3767,3.382,3.388,3.3909,3.3906,3.3995,3.3972,3.3973,3.3978,3.4015,3.4021,3.4026,3.3957,3.3957,3.3957,0,0,3.3377,3.3412,3.3457,3.3494,3.3549,3.3579,3.359,3.3649,3.3671,3.3731,3.3751,3.3793,3.3873,3.3911,3.3941,3.399,3.4004,3.4004,3.4018,3.4054,3.4059,3.4064,3.4084,3.4091,3.4009,3.4009,3.4009,0,3.3374,3.3444,3.3477,3.3525,3.3557,3.3582,3.3628,3.3662,3.373,3.3752,3.3748,3.3853,3.389,3.3961,3.3974,3.3996,3.4011,3.3998,3.4056,3.4061,3.4065,3.4085,3.4093,3.4009,3.4009,3.4009,3.4009,0,3.344,3.3488,3.3517,3.3584,3.3619,3.3665,3.3707,3.3739,3.3758,3.3789,3.3851,3.3897,3.3955,3.3973,3.3991,3.4049,3.4046,3.4048,3.4041,3.4071,3.409,3.4098,3.4009,3.4009,3.4009,3.4009,0,0,3.3459,3.3545,3.3555,3.3588,3.3652,3.369,3.3739,3.3797,3.3825,3.3871,3.3914,3.3984,3.3988,3.4021,3.4044,3.4075,3.4115,3.4075,3.4076,3.4083,3.4185,3.4185,3.4193,3.4124,3.4125,3.4127,3.4182,0,3.35,3.3588,3.3621,3.3694,3.374,3.3766,3.3809,3.3854,3.3885,3.3929,3.3963,3.4013,3.4013,3.4034,3.4066,3.4103,3.4137,3.41,3.4166,3.4168,3.4155,3.4202,3.4201,3.4251,3.4189,3.419,3.4191,0,3.3559,3.3608,3.3686,3.3748,3.3769,3.3807,3.3864,3.3906,3.3958,3.3979,3.4018,3.404,3.4094,3.4082,3.4158,3.4133,3.4162,3.4185,3.4187,3.4196,3.4183,3.4215,3.4267,3.4276,3.4203,3.4202,3.4201,0,3.3568,3.3654,3.3712,3.3738,3.3811,3.3838,3.387,3.3921,3.3955,3.4005,3.4028,3.4083,3.4114,3.4157,3.4194,3.4182,3.4268,3.4258,3.4288,3.4287,3.4306,3.4305,3.4366,3.4321,3.4321,3.4321,3.432,0,3.3612,3.3659,3.3718,3.3754,3.3809,3.3847,3.39,3.3934,3.398,3.4024,3.4049,3.409,3.4135,3.4182,3.4211,3.4271,3.4284,3.4304,3.4311,3.4303,3.4301,3.4324,3.4323,3.4323,3.4322,3.4322,3.4321,0,3.3632,3.3673,3.3739,3.3804,3.3821,3.3859,3.3915,3.3952,3.3985,3.4041,3.4056,3.4108,3.4165,3.4206,3.4279,3.4299,3.4365,3.437,3.4347,3.4352,3.438,3.4378,3.446,3.4474,3.4417,3.4418,3.4418,0,3.3658,3.3695,3.3765,3.3797,3.3829,3.3879,3.3915,3.3955,3.3991,3.4056,3.4086,3.4145,3.4195,3.4286,3.433,3.4387,3.4396,3.4421,3.4405,3.4397,3.44,3.4399,3.4404,3.4424,3.4424,3.4425,3.4425,0,3.3701,3.372,3.377,3.3829,3.3871,3.3918,3.3966,3.3991,3.404,3.4079,3.4139,3.4178,3.4254,3.4314,3.4376,3.441,3.4427,3.443,3.444,3.4433,3.442,3.4431,3.4357,3.4428,3.4428,3.4428,3.4427,3.4427,3.3726,3.3762,3.3818,3.3874,3.3915,3.396,3.3999,3.4038,3.4089,3.4155,3.4176,3.4239,3.4293,3.4379,3.4413,3.4464,3.4463,3.4477,3.4481,3.4485,3.4486,3.441,3.4475,3.4475,3.4475,3.4475,3.4475,0,3.3773,3.3811,3.3862,3.393,3.3975,3.3987,3.4042,3.4079,3.4134,3.4184,3.4234,3.4304,3.4363,3.4413,3.4475,3.4506,3.4515,3.4521,3.452,3.4528,3.4482,3.4468,3.4512,3.4512,3.4512,3.4512,3.4512,3.4512,3.3803,3.3865,3.3892,3.3976,3.4014,3.4077,3.4107,3.415,3.4191,3.4269,3.4318,3.4351,3.4402,3.4468,3.4523,3.4537,3.4559,3.4563,3.4579,3.4535,3.4531,3.4527,3.4514,3.4567,3.4567,3.4621,3.4622,3.4622]}]]